Flight Information

DEPARTURE
DENVER, CO
Elevation:
5884
Runways:
17L/35R - 10001x100 - ASPH-G
17R/35L - 7001x75 - ASPH-G
H1 - 50x50 - CONC-G
10/28 - 4800x75 - ASPH-G
ATIS:
120.3 303-799-6722
Clearance Delivery:
128.6
Ground:
121.8
Tower:
CENTENNIAL TOWER 118.9
DESTINATION
,
Elevation:
TPA:
1000 (est.)


6083.4 NM80° True-11° Var69° HDG

Flight Plan:
(click to file on line)

1. Type
2. Aircraft Identification
3. Aircraft Type / Special Equipment
4. True Airspeed
kts
5. Departure Airport
(ICAO code)
6. Arriving Airport
(ICAO code)
7. Cruising Altitude
ft
8. Alternate Airport
(ICAO code)
9. Route of Flight
10. Remarks


00:00:00 Departure ATIS: Destination ATIS:

Clearance Limit:
Route:
Altitude: Expect in minutes
Frequency:
Transponder: (7500 Hijack / 7600 Lost Comms / 7700 Emergency)


KAPA 261353Z 32004KT 10SM FEW020 BKN032 OVC060 13/06 A3052 RMK AO2 SLP296 T01280056
Time: 2022-06-26T13:53:00Z
1656254862
Winds: 320 @ 4 kts
Visibility: 10.0 sm
Clouds (AGL): FEW 2000
BKN 3200
OVC 6000
Temperature: 12.8 C
Dew Point: 5.6 C
Pressure: 30.519686 in Hgbr


Notes:

Data extracted from FAA Digital Chart Supplement. Effective: 0901Z Thursday, 27 JAN 2022 to 0900z Thursday, 24 MAR 2022
Current ATIS data is provided courtisy of PilotEdge.